Content
SEND FEEDBACK

Daily
Averages
Monthly
Summary
United States of America

RAPID CITY, SOUTH DAKOTA


Home > North America > United States > South Dakota
Elevation: 3162 feet     Latitude: 44 03N     Longitude: 103 04W

WEATHER
 
SELECT A DAY
Number of Records: 200,329;   Date Range: 1/1/95 - 7/29/14
 
SHARE

PRINT THIS DATA

[ ← Previous Day ]
WEATHER ALMANAC - SEPTEMBER 1, 2013
[ Next Day → ]
[ °C ]   °F
Weather ElementAverageHighLow
Temperature68 °F82.9 °F (3:52 pm)53.1 °F (5:52 am)
Dewpoint44.5 °F48 °F (6:52 pm)41 °F (1:52 am)
Humidity45.7 %69 % (6:52 am)26 % (2:52 pm)
Barometer30.06 in30.11 in (7:52 am)30.01 in (4:52 pm)
Wind Speed4.6 mph9.2 mph (3:52 am)
Weather ElementAverage
Visibility10 mi
Wind DirectionSSE (151.3 °)

Weather ElementTotal
Precipitation---
Cooling Degree Days3 (Base 65)
Growing Degree Days18 (Base 50)
Averaged from 23 records on September 1, 2013
WEATHER CONDITIONS BREAKOUT
WIND DIRECTION BREAKOUT
WEATHER BY HOUR - SEPTEMBER 1, 2013
[ °C ]   °F
Local TimeTemperatureDewpointHumidityBarometerVisibilityWind DirectionWind SpeedGust SpeedPrecipitationEventsConditions
1:52 AM55.9 °F41.0 °F57 %30.06 in10.0 miNW (310°)8.1 mphClear
2:52 AM55.9 °F42.1 °F60 %30.07 in10.0 miWNW (300°)8.1 mphClear
3:52 AM55.0 °F42.1 °F62 %30.06 in10.0 miNW (310°)9.2 mphClear
4:52 AM55.0 °F42.1 °F62 %30.06 in10.0 miNNW (330°)8.1 mphClear
5:52 AM53.1 °F41.0 °F64 %30.08 in10.0 miNW (310°)4.6 mphClear
6:52 AM53.1 °F43.0 °F69 %30.09 in10.0 miNW (310°)4.6 mphClear
7:52 AM63.0 °F45.0 °F52 %30.11 in10.0 miNW (320°)6.9 mphClear
8:52 AM69.1 °F44.1 °F40 %30.11 in10.0 miVariable3.5 mphClear
9:52 AM71.1 °F46.0 °F41 %30.11 in10.0 miNorth (350°)4.6 mphClear
10:52 AM75.0 °F45.0 °F34 %30.10 in10.0 miVariable4.6 mphClear
11:52 AM77.0 °F45.0 °F32 %30.09 in10.0 miVariable5.8 mphClear
12:52 PM79.0 °F44.1 °F29 %30.07 in10.0 miCalmClear
1:52 PM80.1 °F44.1 °F28 %30.06 in10.0 miCalmClear
2:52 PM82.0 °F44.1 °F26 %30.04 in10.0 miCalmClear
3:52 PM82.9 °F45.0 °F26 %30.02 in10.0 miCalmClear
4:52 PM82.9 °F45.0 °F26 %30.01 in10.0 miSW (220°)5.8 mphClear
5:52 PM82.0 °F45.0 °F27 %30.01 in10.0 miSouth (170°)4.6 mphClear
6:52 PM79.0 °F48.0 °F34 %30.02 in10.0 miSSE (160°)3.5 mphClear
7:52 PM69.1 °F46.0 °F44 %30.04 in10.0 miEast (90°)5.8 mphClear
8:52 PM66.0 °F45.0 °F47 %30.05 in10.0 miENE (70°)9.2 mphClear
9:52 PM61.0 °F46.9 °F60 %30.06 in10.0 miESE (120°)5.8 mphClear
10:52 PM59.0 °F46.0 °F62 %30.06 in10.0 miESE (110°)3.5 mphClear
11:52 PM57.0 °F46.9 °F69 %30.05 in10.0 miCalmClear
Hourly data recorded from KRAP, located miles away from Rapid City, South Dakota







STORIES FROM OUR PARTNERS